This is the latest recevied weather packets stored in our database for station/object DL1VED. If no packets are shown the sender has not sent any weather packets the latest 10 day(s).
| Time | Temp. | Humidity | Pressure | Rain* | Wind** | Luminosity | Snow |
|---|---|---|---|---|---|---|---|
| 1777443257 | 9.44° C | 45% | 1021.7 hPa | 0 mm | - | - | - |
| 1777442357 | 8.89° C | 46% | 1021.6 hPa | 0 mm | - | - | - |
| 1777441457 | 8.33° C | 49% | 1021.5 hPa | 0 mm | - | - | - |
| 1777440557 | 7.78° C | 48% | 1021.6 hPa | 0 mm | - | - | - |
| 1777439657 | 7.78° C | 49% | 1021.4 hPa | 0 mm | - | - | - |
| 1777438757 | 7.78° C | 49% | 1021.5 hPa | 0 mm | - | - | - |
| 1777437857 | 7.78° C | 49% | 1021.3 hPa | 0 mm | - | - | - |
| 1777436957 | 7.78° C | 49% | 1021.2 hPa | 0 mm | - | - | - |
| 1777436063 | 7.78° C | 49% | 1021.1 hPa | 0 mm | - | - | - |
| 1777436057 | 7.78° C | 49% | 1021.1 hPa | 0 mm | - | - | - |
| 1777435157 | 8.33° C | 48% | 1021 hPa | 0 mm | - | - | - |
| 1777434257 | 8.33° C | 100% | 1020.8 hPa | 0 mm | - | - | - |
| 1777433357 | 8.33° C | 48% | 1020.7 hPa | 0 mm | - | - | - |
| 1777432457 | 8.33° C | 48% | 1020.6 hPa | 0 mm | - | - | - |
| 1777431557 | 8.89° C | 47% | 1020.5 hPa | 0 mm | - | - | - |
| 1777430657 | 8.89° C | 48% | 1020.4 hPa | 0 mm | - | - | - |
| 1777429757 | 8.89° C | 47% | 1020.4 hPa | 0 mm | - | - | - |
| 1777428857 | 8.89° C | 48% | 1020.3 hPa | 0 mm | - | - | - |
| 1777427957 | 9.44° C | 48% | 1020.4 hPa | 0 mm | - | - | - |
| 1777427057 | 9.44° C | 100% | 1020.4 hPa | 0 mm | - | - | - |
| 1777426157 | 9.44° C | 48% | 1020.3 hPa | 0 mm | - | - | - |
* Rain latest hour (hover to see other rain measurements)
** Current wind speed in m/s (hover to see current wind gust speed)